Regional Weather Roundup
Issued by NWS Goodland, KS

Home | Current Version | Previous Version | Text Only | Print | Product List | Glossary On
Versions: 1 2 3 4 5 6 7 8 9 10 11 12 13 14 15 16 17 18 19 20 21 22 23 24 25 26 27 28 29 30 31 32 33 34 35 36 37 38 39 40 41 42 43 44 45 46 47 48 49 50
000
ASUS43 KGLD 251008
RWRGLD

GOODLAND FORECAST AREA HOURLY WEATHER ROUNDUP
NATIONAL WEATHER SERVICE GOODLAND KS
400 AM MDT MON JUL 25 2016

...OFFICIAL OBSERVATIONS...

CITY           SKY/WX    TMP DP  RH WIND       PRES   REMARKS
GOODLAND KS    PTCLDY    61  59  93 E5        30.17R
HILL CITY KS   CLOUDY    69  64  84 E8        30.11F
IMPERIAL NEB   CLEAR     62  59  90 NE3       30.17R
MCCOOK NEB     MOCLDY    64  61  90 NE6       30.13R
AKRON CO       CLEAR     58  56  93 W6        30.22R
BURLINGTON CO  CLOUDY    62  57  83 SW10      30.21R
LIMON CO       CLEAR     56  53  90 S3        30.26F
$$

...UNOFFICIAL OBSERVATIONS...

CITY           SKY/WX    TMP DP  RH WIND       PRES   REMARKS
COLBY KS       CLEAR     64  64 100 E3        30.17R
LENORA KS        N/A     70  32  24 MISG        N/A
NORTON KS      CLEAR     68  59  73 CALM      30.12R
SHARON SPRINGS   N/A     63  61  93 S5          N/A
KIT CARSON CO    N/A     60  56  86 CALM        N/A
YUMA CO          N/A     58  56  92 CALM        N/A
$$



USA.gov is the U.S. government's official web portal to all federal, state and local government web resources and services.